Flag Weather past 2 weeks in Trois-Rivieres, Quebec, Canada

Now
32 °F

Chilly.


Feels Like: 29 °F
Forecast: 33 / 36 °F
Wind: 3 mph from Northwest

Location: Trois Rivieres

Current Time: Nov 26, 2014 at 7:55:04 AM

Latest Report: Nov 26, 2014 at 7:00 AM


Visibility: N/A

Pressure: 30.22 "Hg

Humidity: 64%

Dew point: 21 °F

Location of Trois-RivieresLocation

Historic Weather in Trois-Rivieres — Graph

°F

Trois-Rivieres temperature yesterday

Maximum temperature yesterday: 51 °F (at 12:00 AM)
Minimum temperature yesterday: 39 °F (at 11:00 PM)
Average temperature yesterday: 43 °F

Past Weeks' High & Low Weather Summary

 TemperatureHumidityPressure
High56 °F (Nov 24, 7:00 PM)100% (Nov 12, 11:00 AM)30.32 "Hg (Nov 12, 11:00 AM)
Low16 °F (Nov 22, 2:00 AM)44% (Nov 13, 5:00 PM)29.25 "Hg (Nov 24, 7:00 PM)
Average33 °F78%29.88 "Hg
* Reported Nov 11 6:00 AM — Nov 26 6:00 AM, Trois-Rivieres, Weather by CustomWeather, © 2014

Note: Actual official high and low records may vary slightly from our data, if they occured in-between our weather recording intervals... More about our weather records

Advertising

Trois-Rivieres weather history for previous 24 hours

 ConditionsComfort  
Time TempWeatherWind HumidityBarometerVisibility
6:00 AM
Nov 26
31 °FChilly.5 mph62%30.22 "HgN/A
5:00 AM33 °FChilly.3 mph56%30.19 "HgN/A
4:00 AM35 °FChilly.5 mph55%30.16 "HgN/A
3:00 AM36 °FChilly.5 mph61%30.14 "HgN/A
2:00 AM37 °FChilly.9 mph61%30.11 "HgN/A
1:00 AM38 °FChilly.18 mph70%30.06 "HgN/A
12:00 AM38 °FChilly.28 mph71%30.01 "HgN/A
11:00 PM
Nov 25
39 °FChilly.24 mph70%29.97 "HgN/A
10:00 PM40 °FChilly.21 mph68%29.94 "HgN/A
9:00 PM40 °FQuite cool.18 mph71%29.91 "HgN/A
8:00 PM40 °FQuite cool.14 mph71%29.89 "HgN/A
7:00 PM41 °FQuite cool.23 mph68%29.86 "HgN/A
6:00 PM42 °FQuite cool.16 mph76%29.83 "HgN/A
5:00 PM41 °FQuite cool.23 mph80%29.81 "HgN/A
4:00 PM44 °FQuite cool.21 mph63%29.80 "HgN/A
3:00 PM43 °FQuite cool.16 mph63%29.78 "HgN/A
2:00 PM43 °FQuite cool.18 mph64%29.76 "HgN/A
1:00 PM43 °FQuite cool.23 mph63%29.75 "HgN/A
12:00 PM42 °FQuite cool.22 mph66%29.75 "HgN/A
11:00 AM42 °FQuite cool.28 mph68%29.73 "HgN/A
10:00 AM42 °FQuite cool.31 mph67%29.71 "HgN/A
9:00 AM43 °FQuite cool.29 mph66%29.70 "HgN/A
8:00 AM43 °FQuite cool.23 mph69%29.66 "HgN/A
7:00 AM43 °FQuite cool.31 mph68%29.62 "HgN/A
Weather by CustomWeather, © 2014

See weather overviewHow to use our weather pages